Theta_e
316 322 322 323 325 325 327 328 328 328 329 323 320 318 320 321 317 318 321 322 323 321 320 320 320 321 320 321 322 321 321 321 321 319 326 338 328 324 331 331 336 337 340 343 337 335 334 334 335 338 340 340 340 341 341 341 341 340 335 335 337 336 337 337 338 338 338 338 338 339 339 339 340 340 340 340 339 338 338 338 339 340 341 341 341 341 341 341 340 339 338 337 337 336 333 331 331
320 327 325 325 325 325 329 327 324 323 323 319 317 317 318 320 319 320 321 321 321 320 320 320 320 321 321 321 320 321 321 322 320 324 331 331 324 328 330 329 335 336 340 343 337 334 334 335 334 337 340 340 341 341 341 341 341 340 337 335 336 336 337 338 337 337 338 337 338 339 340 341 340 341 341 341 340 339 339 339 340 340 340 341 341 341 340 339 338 337 336 335 336 337 335 333 331
317 324 325 325 326 325 328 325 323 321 319 315 315 320 319 319 320 321 321 320 321 319 320 320 322 321 320 321 321 322 322 322 320 324 330 328 329 329 324 327 334 336 340 343 338 335 335 335 335 336 339 340 340 341 341 341 340 340 338 336 336 337 337 338 337 337 338 337 339 340 340 341 341 341 341 341 340 339 339 339 340 340 340 340 340 340 339 338 336 335 335 333 334 336 336 335 333
316 322 325 324 327 327 329 327 326 322 317 315 314 320 321 319 320 320 320 320 321 320 319 320 322 321 320 322 320 322 321 323 321 322 330 330 333 330 321 324 333 336 340 344 340 335 335 335 335 335 338 340 340 341 341 341 340 340 339 337 337 337 336 337 337 338 338 339 339 340 341 341 341 341 341 341 340 338 339 339 339 340 340 339 339 339 338 336 334 333 334 333 334 335 335 335 334
320 325 325 323 328 327 328 325 323 320 316 317 315 319 321 319 320 320 320 320 321 320 319 320 322 321 321 322 320 321 321 324 322 321 330 328 329 330 323 322 332 336 338 344 341 336 336 335 335 335 338 339 339 340 340 341 340 340 339 337 338 337 337 337 338 339 339 339 340 340 341 341 341 341 340 340 339 338 337 338 338 338 338 338 338 337 336 334 333 332 332 332 333 334 334 334 331
324 327 324 322 327 324 325 321 319 319 319 322 318 319 320 318 320 320 321 320 321 321 319 320 320 321 321 321 321 322 323 323 323 324 328 328 326 327 323 321 330 336 337 342 342 338 337 336 335 335 337 338 339 339 339 341 339 339 339 338 338 338 338 337 338 339 339 339 340 340 341 341 341 341 340 339 338 337 336 336 336 337 336 336 335 335 333 332 332 331 330 329 330 331 330 327 323
324 328 326 324 325 322 321 320 320 320 320 323 319 318 319 318 320 319 321 321 322 321 320 321 320 321 321 321 321 322 323 321 325 328 326 325 323 323 323 321 328 336 337 340 343 340 338 338 336 335 337 337 338 340 339 339 340 339 339 338 338 339 338 337 338 339 340 340 340 340 341 341 341 340 339 338 337 336 335 335 335 335 335 334 334 333 332 331 330 330 329 327 326 325 323 319 315
322 327 327 324 325 324 323 321 322 322 320 321 319 319 319 319 321 320 321 320 321 321 320 320 320 321 321 321 322 323 323 320 323 326 322 320 320 322 323 322 326 335 337 339 342 342 341 340 338 336 336 337 339 340 340 339 340 339 339 339 339 339 338 337 338 339 340 340 340 341 341 341 340 339 338 337 336 335 334 334 334 334 333 333 332 331 331 330 329 329 326 324 323 320 316 313 308
322 325 325 323 325 326 324 324 324 323 321 320 319 319 319 319 320 320 320 320 321 321 321 321 320 321 321 321 322 325 324 321 320 321 320 319 320 320 322 324 326 332 337 338 341 342 342 341 340 337 336 337 338 339 340 339 339 340 339 339 339 339 338 338 339 339 339 339 340 340 340 340 339 338 337 336 335 333 332 332 332 331 331 331 331 330 329 329 328 328 323 320 319 315 309 305 301
324 323 324 325 325 323 321 322 322 322 321 320 319 319 319 319 320 320 320 320 321 321 320 320 321 320 321 320 321 326 325 321 317 317 317 317 320 319 321 327 327 330 335 338 341 342 341 341 340 338 337 337 338 339 339 339 339 340 340 339 339 339 338 338 339 339 339 339 340 340 339 339 338 337 336 335 334 333 331 330 329 328 329 329 328 328 327 328 327 325 320 317 314 307 303 300 299
328 324 322 324 322 320 318 319 320 321 321 320 319 319 320 320 320 320 320 321 320 321 320 319 320 320 321 319 324 327 322 319 318 318 317 316 318 319 322 327 329 330 333 338 341 341 340 340 339 339 338 337 338 339 339 340 339 339 339 339 339 339 338 338 338 339 339 339 340 339 339 338 337 336 335 334 333 332 330 329 327 326 328 327 327 327 326 326 325 322 317 313 307 301 299 299 299
330 328 325 323 321 320 319 318 319 322 322 320 320 320 320 319 319 320 320 320 320 320 320 320 320 320 320 320 326 325 320 321 322 322 318 315 316 319 326 329 329 331 333 337 340 340 339 339 339 338 338 338 338 340 340 340 339 339 339 339 339 338 338 337 338 338 338 339 339 338 338 337 336 335 334 333 332 331 329 329 326 325 327 326 326 326 325 325 323 319 313 306 301 299 299 299 299
328 329 326 324 323 323 322 320 321 322 323 320 320 319 319 318 319 319 319 319 318 319 320 320 320 320 320 320 324 323 321 323 325 323 318 317 317 318 328 331 329 332 334 336 339 339 338 338 337 337 338 338 339 340 340 340 339 338 339 339 339 338 338 337 338 338 338 338 338 338 337 336 336 334 333 332 331 330 329 327 325 325 326 326 325 325 325 324 322 317 309 302 298 298 298 298 298
328 327 325 325 324 323 322 322 322 321 320 320 319 319 318 317 318 319 318 317 317 319 319 319 319 319 319 319 322 326 323 322 322 320 317 320 322 319 327 333 330 332 334 335 338 338 338 337 336 335 337 338 339 340 339 340 339 339 339 339 339 338 338 337 337 337 337 337 337 337 336 335 334 333 332 331 329 328 328 324 321 324 326 325 325 325 324 323 321 313 304 300 298 298 298 298 298
325 327 326 324 323 322 323 323 323 320 320 320 318 318 318 317 318 318 318 317 317 319 319 318 318 318 319 317 323 331 325 320 319 317 317 320 325 322 326 333 331 331 334 334 336 337 337 336 335 333 336 338 338 339 339 339 339 339 339 338 338 338 337 337 336 336 336 336 336 336 335 335 333 331 330 329 329 327 328 323 318 322 324 323 324 324 323 322 319 310 302 299 297 298 298 298 298
324 326 326 324 323 322 322 324 324 321 320 320 318 318 318 318 319 318 318 318 318 319 318 318 318 318 319 317 322 328 322 319 317 315 317 318 324 325 327 332 331 331 333 334 335 335 336 336 336 335 335 337 338 339 339 339 339 339 339 338 338 337 337 336 336 335 335 335 335 334 334 334 332 330 329 328 328 326 328 324 316 319 322 323 323 323 322 321 319 309 302 299 297 298 297 298 297
323 324 325 324 323 322 322 323 323 320 318 318 318 319 317 318 319 318 318 317 318 317 318 318 317 318 318 317 321 323 319 317 316 316 319 319 323 327 328 329 330 330 331 333 333 334 334 335 336 336 336 337 338 339 339 339 339 339 338 338 337 337 337 335 335 335 334 334 333 333 332 331 330 329 328 327 327 326 327 323 313 315 321 322 322 322 321 320 318 310 301 298 297 298 297 297 297
323 325 324 323 323 322 322 321 321 320 318 317 317 317 316 316 317 318 318 317 318 317 317 317 317 318 318 318 319 321 319 317 317 319 322 323 324 326 328 328 328 329 330 331 332 333 333 334 335 336 337 337 338 339 339 339 339 339 338 338 337 336 336 335 334 334 333 333 332 332 330 329 328 328 327 327 326 326 326 321 313 313 319 321 321 321 320 320 318 309 301 298 297 297 296 297 297
323 325 324 323 323 323 322 320 320 321 319 317 316 316 316 316 316 317 318 317 317 317 316 317 317 317 318 317 319 320 319 318 319 320 323 325 325 325 326 327 327 328 329 329 329 331 332 333 334 335 336 336 337 337 337 337 337 337 337 337 337 336 335 334 333 332 332 331 331 331 330 329 327 327 327 326 325 325 325 320 314 312 317 320 319 320 319 319 318 309 301 298 296 296 296 296 296
323 324 323 322 322 321 320 319 319 319 319 318 317 317 316 316 316 316 317 317 317 317 317 316 316 317 318 317 319 320 319 319 320 321 322 324 325 324 325 327 327 326 327 327 327 328 330 332 333 334 335 335 336 337 337 336 336 335 334 334 335 334 333 332 332 331 331 330 329 329 329 328 327 327 326 326 325 324 324 318 314 313 316 319 320 319 317 316 316 309 301 297 296 296 296 296 295
323 322 322 322 321 320 318 317 318 318 318 318 318 317 316 316 316 316 318 318 317 317 317 317 316 316 317 317 317 318 318 318 319 320 320 321 323 324 323 325 326 326 326 326 327 327 328 330 332 333 334 334 334 335 336 335 335 335 334 333 333 333 332 331 331 330 330 329 329 328 328 328 327 326 325 325 324 323 321 316 314 314 315 318 319 318 315 314 312 306 299 297 296 295 295 296 295
322 321 321 321 320 319 317 317 318 320 319 318 318 317 316 316 316 317 318 318 317 317 317 317 317 317 316 317 316 316 319 320 319 319 320 320 320 321 322 323 323 325 326 327 328 327 327 329 331 332 333 333 333 334 334 334 334 334 333 333 332 331 331 330 330 329 329 328 327 327 327 327 326 325 324 324 323 322 318 316 315 313 314 317 317 317 314 311 307 302 298 296 296 295 295 296 295
322 321 320 319 318 317 316 316 319 320 318 318 318 317 316 315 315 316 317 317 317 317 317 317 317 317 317 317 317 317 319 322 321 319 319 320 320 320 320 321 322 323 326 328 328 328 327 327 329 331 332 333 333 333 333 333 333 333 332 332 331 331 330 330 330 329 328 327 327 327 326 325 325 324 323 323 323 321 318 317 316 313 313 315 316 315 313 309 304 300 297 296 295 295 295 296 296
320 321 319 319 317 316 315 316 318 319 318 317 318 318 317 316 316 315 316 316 316 317 316 317 316 316 317 318 318 319 319 320 319 319 319 319 320 320 319 320 320 320 323 327 328 329 328 327 327 329 331 332 332 332 332 332 332 332 331 331 330 330 330 329 329 328 328 327 326 326 326 324 324 324 323 323 322 321 319 318 316 314 314 314 315 314 312 307 304 300 297 296 295 296 296 295 296
318 319 318 318 317 317 317 317 318 318 317 317 318 318 318 316 316 315 315 316 316 316 316 316 316 316 317 318 318 319 320 319 318 317 318 319 318 319 320 320 320 320 321 324 327 328 328 327 326 327 329 330 331 332 332 332 331 331 330 330 330 329 329 329 328 328 327 326 326 325 325 323 323 323 322 322 322 320 319 318 316 314 314 314 313 313 311 308 305 301 297 296 295 296 296 295 295
317 316 316 316 316 316 316 316 315 316 316 315 317 318 318 317 316 316 316 316 316 317 317 317 317 317 317 317 317 318 319 320 319 317 317 318 318 318 319 319 320 320 319 321 325 327 327 327 327 327 328 329 330 331 332 331 331 330 330 329 329 329 329 328 328 327 327 326 326 325 324 323 323 323 322 322 321 319 318 318 316 314 314 315 313 312 311 310 307 303 298 296 296 296 296 295 295
316 316 315 315 315 315 315 315 314 314 314 314 315 316 317 316 316 315 315 316 317 317 317 317 316 317 316 316 316 317 318 317 317 317 317 317 318 319 319 319 320 319 319 320 321 324 325 326 327 327 327 328 329 330 331 331 330 329 329 329 329 329 329 328 327 327 326 325 325 324 324 323 322 322 322 320 319 318 317 317 316 315 315 315 314 312 311 311 308 303 298 297 296 296 296 295 295
316 314 314 314 314 314 314 314 314 314 314 315 315 315 316 316 316 315 315 315 316 316 316 317 317 317 317 316 316 317 318 316 314 316 317 317 317 318 319 319 320 319 319 319 319 321 323 325 326 326 326 327 328 329 329 330 329 329 328 328 329 329 328 327 327 326 326 325 325 324 323 322 322 322 320 319 318 316 315 316 316 316 316 316 315 312 310 309 307 302 298 297 296 295 295 295 295
314 314 313 314 314 314 315 314 315 315 315 316 315 315 315 315 316 315 315 315 315 316 316 317 317 316 316 316 315 317 316 314 314 315 316 317 316 317 318 319 319 319 319 318 318 319 321 323 325 325 325 326 326 327 328 329 328 328 328 328 328 328 328 327 326 326 325 325 324 324 323 322 321 321 319 317 316 315 314 315 316 316 316 315 314 312 310 307 304 301 298 297 296 295 296 295 295
314 314 314 314 314 315 315 315 316 315 316 316 314 314 315 315 316 316 316 316 316 316 316 316 316 316 315 315 315 316 316 315 314 314 316 317 317 317 317 318 318 319 318 318 319 319 320 322 324 324 324 325 326 326 327 328 328 328 327 327 328 328 327 326 326 325 325 324 324 323 322 322 321 320 318 316 315 314 313 314 316 316 315 314 312 311 308 305 302 299 298 297 296 296 296 296 295
314 314 315 315 316 316 317 317 317 316 315 315 314 314 314 315 316 317 317 317 316 316 316 316 315 315 315 315 316 316 316 316 314 314 316 316 316 316 316 317 317 318 318 319 319 319 318 320 322 324 324 324 325 325 326 326 326 327 326 326 326 326 326 326 325 324 324 324 323 323 322 321 321 319 317 315 314 313 312 313 314 314 313 312 310 309 307 303 300 298 297 297 297 297 297 297 296
314 315 315 318 317 317 318 318 318 316 314 313 315 315 315 315 317 318 318 317 316 315 315 315 315 315 315 315 315 317 317 315 314 315 316 315 315 315 316 316 316 316 315 316 318 319 318 319 320 322 323 324 324 324 324 325 325 325 325 325 325 326 326 325 324 324 324 324 323 322 321 321 320 319 316 314 313 312 311 311 312 312 311 310 308 307 305 302 300 298 297 297 297 297 297 297 295
317 316 316 318 318 318 319 318 317 317 315 313 314 316 315 315 316 317 316 316 315 315 315 315 315 314 315 315 315 317 317 317 316 316 316 316 315 314 314 314 314 314 313 313 315 318 318 319 320 321 321 322 323 324 324 324 324 324 324 324 324 325 324 324 324 323 323 323 322 321 320 319 319 318 317 314 312 311 310 310 311 310 309 308 307 305 303 302 299 298 297 297 296 297 297 296 295
319 319 318 319 319 318 318 318 318 319 317 315 315 315 315 315 316 316 316 316 316 315 315 315 315 315 315 316 316 316 317 319 318 315 314 314 314 313 313 312 313 312 312 312 313 315 317 318 319 319 319 320 322 323 323 323 323 323 323 323 323 324 324 324 323 323 323 322 321 320 319 318 318 317 316 314 312 310 310 309 309 309 308 307 306 304 303 301 299 298 297 296 296 296 296 296 296
319 320 319 319 319 318 318 318 319 319 318 318 318 317 317 318 317 317 317 316 316 315 315 315 315 315 316 315 316 318 319 318 316 314 313 313 312 312 312 312 312 311 311 311 311 313 315 316 317 318 318 318 320 322 323 323 323 323 323 323 323 323 323 323 323 322 322 321 320 319 318 317 316 316 315 313 312 310 309 308 308 307 307 306 305 303 302 300 299 297 297 296 295 295 296 296 296
318 319 319 319 318 318 318 318 319 319 318 318 319 318 318 318 317 316 316 316 316 315 315 316 316 316 316 317 319 319 318 316 314 313 312 312 312 311 310 310 310 310 310 310 311 312 313 314 315 316 316 316 318 320 321 322 322 322 322 322 322 322 322 322 322 321 321 320 319 318 317 316 315 315 314 313 311 310 309 308 307 306 306 305 304 302 301 300 299 297 296 296 296 296 296 296 296
318 319 319 319 319 318 318 318 319 319 319 319 319 319 317 317 316 315 316 315 316 316 316 316 316 317 318 320 321 318 316 315 313 312 311 311 310 310 309 309 309 309 309 309 310 310 311 312 313 314 313 314 316 318 320 321 321 321 321 320 320 320 320 320 320 320 320 319 318 317 316 315 314 314 313 312 311 310 308 307 306 305 304 304 303 302 301 300 298 297 297 296 296 296 297 297 297
319 320 320 320 319 319 318 318 319 319 319 318 318 318 316 316 316 315 315 316 316 317 317 317 316 317 318 318 318 316 314 313 312 310 310 309 308 308 308 308 308 308 308 308 308 309 310 310 311 312 312 312 314 316 317 319 319 319 319 319 319 319 319 319 318 318 318 318 318 317 316 314 313 313 312 312 311 310 308 307 305 304 304 303 302 301 300 299 298 297 296 296 296 296 297 297 297
321 320 321 321 320 319 319 319 319 318 317 317 317 317 316 316 316 316 316 316 317 318 318 318 317 317 316 315 315 314 312 311 310 309 308 307 306 306 306 306 306 307 307 307 307 307 308 309 309 310 310 311 311 313 315 316 316 317 317 317 317 317 317 316 317 316 316 316 316 316 315 314 313 312 312 311 311 310 309 307 305 304 303 302 302 301 300 299 298 297 296 297 297 296 297 297 297
321 321 321 321 321 321 321 320 318 317 316 317 317 317 318 317 316 317 317 317 318 318 316 316 316 315 315 314 312 311 310 309 308 307 306 305 305 304 304 304 305 305 305 305 306 306 307 307 308 308 309 308 309 310 311 312 313 314 315 314 314 315 314 314 314 314 314 314 314 314 314 313 313 312 311 311 310 310 309 307 306 304 302 302 301 300 300 299 298 297 296 296 297 297 297 297 297
322 323 322 321 321 321 321 319 318 317 317 318 318 320 320 319 319 319 318 320 318 315 313 313 314 314 314 312 311 310 309 308 307 306 306 305 304 304 303 303 303 304 304 304 304 304 304 305 306 307 307 307 307 308 308 309 310 311 312 311 311 311 311 311 311 310 311 311 311 312 312 312 311 311 310 310 309 309 308 308 306 304 302 301 301 300 299 299 298 297 296 297 296 297 297 297 297
322 323 324 322 321 321 321 321 320 319 320 320 319 322 324 321 321 321 319 320 318 313 312 312 312 312 312 311 310 310 308 307 306 305 305 304 303 303 303 302 303 303 303 303 303 303 302 303 304 305 305 305 306 306 306 307 308 308 309 309 308 308 308 308 308 308 308 308 309 309 309 309 309 309 309 309 308 308 308 307 306 305 302 301 300 299 299 298 298 297 297 297 296 296 296 296 297
321 324 325 323 321 322 322 321 321 321 320 319 318 322 322 320 320 321 320 320 316 313 313 312 311 311 311 310 309 308 308 307 306 305 304 303 303 302 302 302 302 302 302 302 302 302 301 302 302 302 303 303 304 305 305 305 306 306 307 307 307 307 307 307 307 307 307 307 307 307 307 307 307 307 307 307 307 307 307 307 306 305 303 301 300 299 299 298 297 297 297 296 296 296 296 296 296
323 324 323 322 320 321 321 320 320 320 319 318 318 320 321 321 321 320 320 320 315 313 313 312 311 310 309 309 308 307 306 306 305 304 303 302 302 301 301 301 301 301 301 301 301 301 301 301 301 301 301 302 303 304 304 304 305 305 305 306 306 306 306 306 306 305 306 306 306 306 306 305 305 305 305 305 305 305 306 305 305 305 303 302 300 299 298 298 297 297 297 297 296 296 296 295 296
324 321 318 318 318 318 318 318 320 319 318 320 321 321 323 324 322 319 321 319 315 313 313 312 311 309 308 307 306 306 305 304 303 303 302 301 301 300 300 299 299 300 300 300 301 300 301 300 300 300 300 301 301 302 303 303 304 304 304 304 304 305 305 305 305 305 305 305 305 304 304 304 304 303 303 303 303 304 304 304 304 304 304 303 301 299 298 298 297 297 297 297 296 296 296 295 296
321 318 317 317 318 318 318 319 319 318 320 321 322 322 324 326 324 321 321 318 314 314 312 311 310 308 307 306 305 305 304 303 302 301 301 300 300 299 299 298 298 298 299 299 299 299 300 300 300 300 300 300 300 300 301 301 302 302 302 303 303 303 303 304 304 304 304 304 304 304 303 303 303 302 302 302 301 302 302 302 303 303 303 303 302 300 299 298 297 297 297 297 297 296 296 296 296
317 317 318 318 320 321 320 319 318 320 323 323 322 321 322 328 330 322 319 317 314 313 312 310 308 306 306 305 304 303 302 302 301 300 300 299 299 298 297 297 297 297 297 297 298 298 298 298 299 299 299 299 299 299 299 299 300 300 301 301 301 302 302 302 303 303 303 303 303 304 303 303 303 302 301 301 301 301 301 301 301 301 301 302 301 301 299 298 297 297 297 297 297 296 296 296 296
316 316 317 319 322 321 319 320 319 321 326 324 323 323 321 326 328 318 316 316 314 313 312 310 307 305 304 303 302 302 301 300 299 299 299 298 297 297 296 296 296 296 296 296 296 296 297 297 297 298 298 298 299 299 299 298 298 299 299 299 300 300 300 301 301 301 301 302 302 302 302 303 302 302 301 301 300 300 300 300 300 300 300 300 300 300 300 299 298 297 297 296 297 297 296 295 295
315 316 315 319 324 323 323 324 323 325 326 322 323 325 323 324 323 318 317 315 312 312 310 308 305 304 303 302 301 301 300 299 298 298 298 297 296 296 295 295 295 294 294 295 295 295 295 295 296 296 296 297 297 298 298 298 298 298 298 298 298 299 299 299 300 300 300 300 300 301 301 301 301 301 301 301 300 300 299 299 299 299 299 299 299 299 299 299 299 298 297 296 296 296 296 296 295
314 317 320 322 324 323 323 325 325 326 324 320 319 322 324 324 320 318 314 309 308 308 306 305 304 303 302 301 300 300 299 298 298 297 297 296 295 295 295 294 294 294 293 293 294 294 294 294 294 295 295 295 296 296 297 297 297 297 297 297 297 297 298 298 298 298 299 299 299 299 300 300 300 301 301 300 300 300 299 299 299 299 298 298 298 298 298 298 298 298 297 297 296 296 296 296 295
315 318 321 323 324 322 321 321 323 325 324 320 318 320 324 322 317 313 309 306 306 305 304 303 302 302 301 300 299 299 298 298 297 297 296 295 294 294 294 294 293 293 293 292 292 293 293 293 293 293 293 294 294 295 295 295 295 296 296 296 296 296 296 297 297 297 297 297 298 298 298 299 299 299 299 299 299 299 299 299 299 298 298 298 298 298 297 297 297 297 297 297 296 296 296 296 296
319 318 319 322 323 322 322 322 322 323 323 320 319 322 323 318 313 310 307 306 305 304 303 303 302 302 301 300 299 298 298 297 297 296 296 294 294 294 294 293 293 293 292 292 292 292 292 292 292 292 292 292 293 294 294 293 293 293 294 294 294 295 295 295 296 296 296 296 296 296 297 297 297 298 298 298 298 298 298 298 298 298 298 297 297 297 297 297 297 297 297 296 296 296 295 295 296
320 320 322 322 321 320 322 324 321 319 321 319 317 319 318 314 314 309 306 306 304 304 303 302 302 301 300 300 299 298 298 297 296 296 295 294 293 293 293 293 293 293 293 292 291 291 291 291 291 290 291 291 291 292 292 292 291 290 291 291 291 292 293 294 294 294 294 295 295 295 295 295 295 296 296 297 297 297 297 298 298 298 297 297 297 297 297 297 296 296 296 296 296 296 295 295 295
320 321 322 319 320 321 319 320 320 319 320 317 315 317 315 315 317 311 307 306 305 304 303 302 301 301 300 300 299 298 297 297 296 295 295 294 293 293 292 292 292 292 293 292 292 291 291 290 290 289 289 289 289 290 290 290 289 289 289 289 289 289 290 291 291 291 291 292 292 293 293 294 294 294 294 295 295 295 296 296 297 297 297 297 296 296 296 296 296 296 296 296 295 295 295 295 295
318 318 318 317 321 323 320 319 320 321 319 317 316 317 315 316 318 313 309 306 305 304 303 302 302 301 300 299 298 298 297 297 296 296 295 294 293 292 292 291 291 291 292 292 292 292 291 290 289 289 288 288 288 288 288 288 288 288 288 288 288 288 288 288 288 288 288 289 290 290 290 291 292 293 293 294 294 294 294 294 295 295 295 296 296 295 296 295 295 295 295 295 295 295 295 294 294
315 314 316 316 318 320 319 319 320 321 319 318 317 318 318 318 316 313 309 307 306 305 304 303 302 301 300 300 299 298 297 297 296 295 295 294 293 292 292 291 291 291 291 292 292 291 290 290 290 289 289 288 288 287 287 288 288 287 287 287 287 287 287 287 287 287 287 287 288 288 288 288 288 289 290 292 293 293 293 293 293 294 294 294 295 295 295 295 295 295 295 295 295 295 294 294 294
316 315 316 316 316 318 318 318 318 318 318 318 317 317 319 316 312 310 309 309 308 307 306 305 303 302 302 301 300 299 298 297 296 295 295 293 293 292 292 291 291 291 291 291 291 291 290 290 289 289 289 289 289 289 288 288 288 288 287 287 286 286 286 286 286 286 286 286 286 286 286 286 286 287 287 288 290 291 292 293 293 293 293 293 294 294 294 294 294 294 294 294 294 294 294 294 293
320 318 317 317 317 318 318 317 317 317 317 318 317 318 318 314 309 309 309 308 309 307 305 305 303 302 302 300 299 299 298 297 296 295 294 293 293 292 292 292 292 291 291 291 291 291 290 290 290 289 289 289 289 289 288 289 289 288 288 288 287 287 287 286 286 286 286 286 286 285 286 286 286 286 286 286 287 287 288 290 291 292 292 292 292 293 293 293 294 294 294 294 294 294 294 293 293
Wind_Speed
6 7 8 8 9 10 8 4 1 2 2 4 4 1 1 1 0 3 3 6 3 3 3 2 3 2 2 3 3 5 4 4 3 2 1 4 6 11 14 12 12 15 17 14 18 25 25 24 22 22 21 20 19 18 18 17 16 14 14 14 14 13 12 11 10 10 9 8 7 7 7 6 6 6 6 6 6 7 7 7 6 6 6 7 7 8 8 8 6 5 4 3 3 3 2 4 5
5 6 8 7 7 5 3 1 1 3 2 3 1 4 0 1 1 3 6 6 3 2 2 2 3 3 3 4 4 5 4 4 1 2 2 6 9 12 13 13 15 17 18 15 19 25 26 25 23 23 21 21 20 19 19 18 17 15 14 14 14 14 13 11 11 10 9 9 8 8 7 7 7 7 7 7 7 7 8 7 7 7 7 8 7 8 7 6 4 3 3 2 2 3 1 0 1
5 4 7 7 6 4 2 1 2 3 4 2 2 3 2 2 4 6 6 5 3 2 1 2 2 2 2 3 3 2 3 2 3 4 4 7 7 9 13 15 17 17 18 15 18 25 27 26 24 24 22 21 20 19 19 18 17 16 15 14 14 14 13 12 11 10 10 9 8 8 8 8 8 8 8 8 8 8 8 8 8 7 7 8 7 6 5 4 2 1 2 0 2 4 4 3 3
5 3 6 7 3 3 2 1 2 3 4 2 2 2 4 3 4 5 4 5 4 2 1 2 1 1 2 3 2 2 3 2 5 4 3 7 4 7 12 16 18 17 18 15 17 25 27 27 26 25 23 22 21 20 19 18 18 17 16 15 15 14 13 13 11 10 10 9 9 8 9 9 9 9 9 9 9 8 8 8 8 7 7 6 6 5 4 3 1 1 1 1 3 4 5 5 6
6 4 5 6 2 1 1 1 2 3 3 2 1 1 5 4 4 5 3 1 5 3 1 1 0 1 1 3 1 2 1 3 3 4 5 7 5 6 10 17 19 17 19 15 16 23 26 27 26 25 24 23 22 21 20 18 18 17 17 16 15 14 13 13 12 11 10 10 9 9 9 9 10 10 10 9 8 8 8 8 8 8 7 6 4 4 3 2 1 0 1 1 3 5 6 7 8
8 6 5 4 2 0 1 2 3 3 1 3 2 3 5 5 5 4 4 2 5 4 1 1 2 1 2 2 3 2 1 2 1 3 5 7 7 6 7 16 19 16 19 16 15 21 25 27 26 26 25 24 23 22 21 20 19 18 17 16 15 14 14 13 12 12 11 10 10 10 10 10 11 11 11 10 9 8 9 8 9 9 7 6 4 2 1 1 0 1 1 1 3 6 7 8 9
8 5 2 2 2 0 1 4 4 4 0 3 2 3 5 5 5 4 4 2 2 3 2 1 1 2 3 1 2 3 1 2 2 3 4 6 7 6 6 15 19 15 18 18 15 18 23 25 25 26 26 25 25 23 23 21 20 19 17 16 15 15 14 13 13 12 11 11 11 11 11 12 12 11 11 10 10 8 7 8 8 8 8 6 5 3 3 2 2 3 3 2 2 6 8 8 8
6 2 0 1 1 1 2 4 5 4 0 3 2 1 3 4 3 2 4 2 1 2 3 2 2 2 3 2 2 2 4 3 4 5 5 5 6 6 6 14 18 14 16 18 16 17 20 22 23 25 26 25 25 25 24 23 21 20 18 17 16 15 15 14 13 13 12 12 12 12 12 13 12 11 11 10 9 7 6 7 7 8 8 7 6 5 3 3 4 4 4 4 5 8 9 8 7
4 2 1 1 2 2 3 5 5 3 1 4 2 1 2 3 3 1 4 4 2 0 3 4 4 2 2 1 3 2 5 6 6 6 4 4 5 5 7 13 17 14 15 17 17 18 18 21 22 23 26 26 25 26 24 25 23 21 20 19 17 16 15 15 14 15 14 14 13 13 13 13 12 11 10 9 9 8 8 8 9 10 9 7 7 6 4 4 4 5 6 7 7 9 8 7 5
3 2 1 1 2 3 4 4 1 2 1 3 1 1 4 4 3 2 3 4 2 1 2 5 4 4 4 5 2 2 5 9 8 7 5 5 5 5 8 12 14 15 16 17 17 18 17 19 22 22 25 26 26 26 25 24 24 23 22 20 19 17 16 16 16 16 16 15 15 14 14 13 12 11 10 11 12 11 10 11 10 9 7 7 8 6 6 5 5 6 8 8 8 8 6 5 2
1 3 1 1 2 4 4 3 4 4 4 3 1 5 5 3 3 3 3 4 2 1 2 5 1 5 5 5 3 2 8 10 8 8 6 5 6 5 8 11 13 14 17 18 16 17 18 19 20 21 24 26 27 26 25 24 25 24 23 22 20 19 18 18 18 18 17 17 16 15 14 13 12 11 12 12 13 11 11 12 11 8 7 8 8 7 7 6 6 7 9 8 7 6 4 2 1
1 2 0 1 3 4 3 5 5 5 6 6 1 7 3 2 1 4 3 4 4 4 3 5 2 1 2 4 3 5 10 7 7 9 7 6 7 6 8 11 14 14 16 19 17 16 18 19 21 21 23 26 27 26 25 25 25 24 23 22 22 21 21 20 19 19 18 18 17 16 14 14 13 13 13 13 13 13 13 13 12 9 8 8 8 7 8 7 7 8 8 7 5 3 2 1 2
2 3 2 3 3 4 4 4 5 5 5 2 4 5 1 1 1 4 4 5 6 6 2 2 1 2 2 5 1 6 7 6 8 9 6 7 7 9 9 9 13 15 15 19 18 16 16 19 22 22 23 26 27 26 25 24 24 24 23 23 22 22 22 21 20 20 19 18 18 17 16 15 14 14 14 15 14 14 14 13 12 10 9 8 8 8 8 8 8 9 7 5 3 2 2 3 3
2 3 2 3 3 5 4 4 5 4 5 2 4 3 2 1 1 2 3 5 6 2 0 1 3 3 2 5 1 2 3 4 8 8 8 9 7 10 11 8 12 15 16 19 20 18 16 18 21 22 24 26 27 25 24 24 23 23 23 23 23 23 22 22 21 20 19 19 19 18 18 17 16 15 15 16 15 15 14 13 11 11 10 9 9 9 8 8 8 9 7 5 4 3 3 3 4
1 3 1 2 4 5 4 4 3 1 3 3 3 2 2 2 2 2 2 4 4 1 1 2 2 1 2 4 2 2 6 8 8 8 9 10 8 10 13 10 12 15 16 19 21 20 19 17 18 20 24 27 28 26 25 24 24 23 23 23 23 23 23 22 22 21 21 20 20 19 19 19 17 16 16 17 16 16 15 14 12 12 11 10 10 9 9 8 8 9 7 5 5 4 4 4 4
1 3 1 2 3 5 4 3 2 2 2 3 3 2 1 3 0 2 1 1 4 4 3 3 4 4 4 6 3 5 10 11 8 8 8 9 9 9 13 13 13 15 17 19 21 21 21 19 17 18 23 28 29 27 27 26 25 25 24 24 24 24 24 23 23 22 22 21 21 21 20 20 19 18 18 18 17 17 16 14 13 13 12 11 11 10 10 9 8 9 8 6 6 5 4 5 5
1 1 1 3 4 5 3 2 1 1 4 3 2 2 2 4 1 2 1 1 4 7 7 5 5 6 7 10 7 8 11 11 8 8 8 9 10 9 12 13 13 15 19 20 22 23 22 22 21 19 22 28 29 28 27 27 27 26 25 24 24 24 24 24 24 23 23 22 22 22 21 21 20 19 19 18 18 18 17 15 13 13 12 12 12 11 11 9 8 10 8 7 6 5 4 5 5
0 1 2 4 4 5 3 5 4 4 5 6 4 4 6 6 2 2 1 3 5 8 10 7 8 8 13 17 13 12 13 12 10 10 10 10 11 11 13 15 15 17 20 22 23 24 24 24 24 22 23 26 29 29 27 27 28 28 27 26 25 25 25 25 25 25 24 24 24 23 22 22 21 20 20 20 19 18 18 16 14 13 13 13 13 12 12 10 9 10 9 8 6 5 5 6 6
2 2 3 4 4 5 6 7 6 5 5 7 7 7 6 7 6 2 2 6 5 7 10 8 9 9 13 16 15 17 15 14 14 13 13 14 14 14 14 16 18 19 20 23 25 26 26 27 26 26 25 25 27 29 28 26 26 28 28 28 28 27 26 26 26 26 26 25 25 24 24 23 22 21 20 20 20 19 19 17 15 14 14 15 15 14 13 11 9 10 11 8 6 6 6 6 6
4 3 3 5 5 7 7 8 7 6 6 7 7 6 6 7 6 3 5 7 5 7 10 8 10 9 8 8 8 16 17 15 16 16 15 15 16 16 16 17 20 22 22 23 24 26 27 27 28 28 28 27 28 29 29 28 27 27 28 28 30 29 29 28 28 28 27 26 26 25 25 24 23 20 18 18 19 20 19 18 16 15 16 17 17 17 14 12 10 12 12 9 7 7 7 6 6
3 4 4 6 5 7 8 10 10 7 6 6 6 7 8 8 6 5 5 6 6 7 9 8 11 11 9 10 5 6 13 14 15 16 15 15 16 17 18 18 19 21 22 22 23 25 27 28 29 30 30 29 29 30 31 30 28 28 28 28 29 30 30 30 29 29 28 27 26 26 25 24 23 21 20 19 19 20 19 18 17 18 19 19 19 19 17 15 14 14 13 9 8 8 7 6 6
2 4 6 7 6 8 8 10 7 4 5 6 7 8 8 7 6 6 6 7 6 6 9 11 12 12 11 11 10 8 6 10 12 13 14 15 17 18 18 18 17 17 19 22 23 24 26 28 30 31 32 31 31 32 32 31 30 28 28 29 29 29 30 31 31 30 29 28 27 26 25 24 23 22 22 21 20 20 21 19 19 20 21 21 21 20 19 18 17 16 12 10 10 9 8 6 5
4 6 6 7 8 9 9 10 5 3 3 6 7 8 7 8 10 8 7 10 10 8 11 13 13 13 13 12 9 9 9 8 9 12 15 17 18 19 19 18 17 17 18 22 23 23 25 28 30 31 32 32 32 32 32 31 32 30 27 27 29 29 29 31 32 32 32 30 28 27 26 25 24 23 22 22 22 21 21 20 20 22 23 23 23 21 20 19 18 17 13 12 12 11 10 9 7
5 6 6 8 10 11 11 9 6 2 5 7 7 7 8 9 10 10 9 11 12 12 12 13 14 13 13 11 10 10 10 10 10 15 18 19 20 21 20 19 19 18 18 21 22 23 25 27 30 32 33 34 33 33 33 32 33 33 29 26 28 29 30 30 30 31 32 31 30 29 27 25 25 25 24 23 23 23 22 21 21 23 24 24 24 22 21 20 19 18 15 14 14 13 12 11 10
6 7 6 7 8 9 9 8 8 7 7 8 6 8 11 9 9 13 13 13 14 14 13 13 14 13 11 10 11 10 9 10 12 15 18 20 21 19 18 19 20 19 19 22 23 24 25 26 29 32 34 35 35 34 34 33 33 33 32 29 28 29 30 30 29 28 29 31 30 30 29 27 27 27 26 25 24 24 23 22 21 23 24 24 24 23 21 21 20 19 17 16 17 15 13 12 11
5 6 6 7 7 8 9 10 11 10 8 8 8 9 11 8 7 12 13 12 13 12 11 11 11 11 9 9 9 9 9 10 10 13 17 20 20 18 19 20 20 22 23 24 24 25 26 26 28 31 33 34 35 35 35 34 33 33 33 32 30 30 31 30 30 28 28 30 30 31 31 30 29 29 28 26 26 26 24 22 22 22 24 24 24 23 23 22 21 20 19 18 19 16 14 13 12
3 5 6 8 9 10 10 12 14 12 9 11 11 10 10 6 3 8 10 9 9 8 8 9 8 9 8 8 8 8 9 10 13 15 15 15 16 19 21 21 22 24 25 25 25 26 26 27 28 30 32 33 34 35 36 35 34 34 34 33 32 32 32 31 30 30 29 30 31 31 31 31 30 30 29 27 26 27 26 24 23 23 24 25 24 23 24 24 22 20 20 19 19 17 15 14 13
4 6 7 10 11 12 13 13 14 11 8 10 8 6 8 6 5 11 14 11 10 9 10 10 9 8 8 9 9 8 8 11 16 14 10 11 14 17 20 21 23 25 25 26 27 28 27 28 29 29 30 32 33 35 36 36 35 34 33 33 33 32 33 32 31 30 30 30 31 31 32 32 31 30 29 28 28 28 28 26 25 25 26 26 25 25 26 24 22 21 19 19 17 16 15 15 14
4 3 6 12 12 12 13 13 14 11 6 5 4 0 5 6 8 14 16 12 9 9 9 9 8 9 9 9 9 7 8 11 13 11 11 14 16 17 19 22 24 24 24 25 25 26 26 26 27 28 29 31 33 34 34 35 35 34 33 33 33 32 32 33 32 31 31 31 31 31 32 33 33 30 29 30 29 29 29 28 28 28 28 28 26 26 26 24 22 21 20 18 17 17 16 15 14
5 4 5 9 9 8 10 10 9 7 3 7 6 1 3 6 10 12 10 6 5 7 7 8 9 10 11 10 9 8 8 8 9 10 12 14 16 17 19 19 19 20 21 20 21 22 23 24 25 26 28 30 32 33 32 32 33 33 32 32 32 33 33 33 33 31 31 31 31 32 33 34 35 32 30 31 30 30 30 30 30 30 29 29 28 28 27 25 24 23 22 20 19 18 18 17 16
6 7 5 5 4 4 8 7 3 2 1 6 6 2 4 6 10 10 6 4 7 9 8 10 11 12 13 10 8 8 8 8 10 13 14 14 13 12 15 15 12 12 12 12 14 17 19 21 23 24 26 28 29 30 30 29 30 31 30 30 31 31 32 32 33 32 31 31 31 32 33 35 35 34 32 31 31 31 31 31 31 31 31 30 29 29 28 27 26 25 24 23 21 20 19 18 17
4 6 4 4 4 4 8 6 4 3 2 3 6 2 6 7 7 7 7 7 9 11 11 13 14 14 14 11 8 7 7 7 9 11 11 8 8 10 6 4 4 4 6 8 7 10 15 19 21 22 22 24 26 27 27 25 25 27 27 26 27 28 29 29 30 31 30 30 30 31 33 34 34 34 33 31 32 32 32 32 32 32 32 31 30 30 29 28 28 27 25 24 23 22 20 18 17
4 5 4 5 5 4 5 2 4 5 2 4 6 4 5 5 6 7 8 10 9 11 14 15 15 14 12 10 7 7 7 7 7 9 17 21 23 24 21 17 13 9 8 8 6 4 9 14 16 18 18 20 21 22 23 22 20 21 23 22 23 23 25 26 26 27 28 28 28 30 31 32 33 33 33 32 32 33 33 33 32 32 32 32 32 31 30 30 29 28 26 25 25 23 21 19 17
3 4 4 5 6 5 4 2 2 2 3 4 7 6 7 7 7 8 9 10 10 12 14 14 12 11 11 9 7 7 6 5 8 14 24 29 27 25 22 20 18 14 12 11 9 4 2 6 10 13 13 14 16 17 18 20 17 16 18 18 19 20 21 22 22 23 25 26 27 28 29 30 32 33 34 33 33 33 33 33 32 32 33 32 32 32 31 30 29 28 27 25 25 24 23 21 20
4 5 4 5 6 6 6 5 7 6 5 7 8 8 9 8 6 7 9 11 12 14 12 11 11 11 12 10 7 6 6 9 12 18 27 29 29 28 24 22 20 18 16 14 12 8 5 2 1 6 9 9 11 12 13 16 15 13 13 14 15 16 17 19 19 20 22 24 25 26 26 28 30 32 34 34 33 33 33 32 31 31 32 32 32 31 30 29 29 28 27 27 25 24 24 23 22
9 9 7 7 7 6 7 9 8 9 10 8 8 9 9 9 8 9 11 12 13 13 10 10 10 9 9 7 5 7 10 11 14 23 30 29 29 28 28 28 26 25 23 19 17 14 10 7 5 3 3 5 8 9 9 12 13 11 11 12 13 14 15 16 18 19 19 20 22 23 25 26 27 30 32 33 33 32 31 31 30 30 31 32 32 32 31 31 31 31 30 29 27 24 22 23 23
11 9 7 8 6 6 8 9 9 7 7 6 6 8 8 9 11 13 14 12 12 11 10 12 10 6 4 5 7 10 12 11 16 26 29 29 29 29 29 30 30 30 29 26 23 20 16 11 8 6 3 2 5 7 8 10 12 11 11 11 12 13 14 15 16 17 18 17 18 19 22 23 24 26 29 31 32 30 29 29 29 30 30 32 33 34 33 33 33 32 31 30 29 27 24 24 25
9 7 6 6 6 8 8 10 10 5 3 4 5 7 7 9 13 17 15 11 10 10 11 11 6 4 6 8 9 11 11 10 15 21 24 28 29 29 29 30 31 31 30 31 29 26 23 19 14 11 7 4 3 4 5 7 9 10 9 10 11 11 12 14 16 17 18 18 17 17 19 21 22 24 26 29 31 31 30 29 29 30 30 31 33 33 32 32 33 32 31 30 30 29 27 26 29
7 5 5 5 5 7 7 8 7 3 2 4 7 7 7 11 16 18 13 9 9 9 6 4 8 11 10 10 10 12 12 12 14 15 19 24 26 27 28 28 29 29 30 32 30 28 28 25 21 17 13 9 6 3 2 2 3 5 5 5 6 7 7 9 11 13 15 17 18 19 19 21 22 23 25 27 30 32 32 31 30 30 31 31 32 33 33 33 34 34 34 33 31 29 27 28 33
4 3 4 5 5 5 5 4 6 7 4 6 8 6 5 10 15 14 11 9 7 3 8 12 12 12 11 12 12 12 13 12 13 13 14 19 23 26 27 26 27 28 30 31 30 29 29 28 25 22 19 16 12 7 5 4 2 2 3 3 3 3 3 4 6 8 10 13 16 18 19 20 21 21 23 25 28 30 31 32 32 31 31 32 33 34 34 35 36 36 36 36 34 30 27 28 33
4 5 5 6 6 6 5 4 7 7 6 5 5 4 5 7 8 6 5 7 3 7 13 13 12 11 11 13 13 12 12 11 11 12 11 14 19 22 24 25 26 28 29 29 30 29 29 28 27 24 22 20 18 12 8 7 4 2 1 3 3 3 4 5 7 8 10 12 13 16 18 19 19 20 21 23 25 28 29 31 32 32 31 31 33 34 35 36 37 38 38 38 38 35 31 29 31
5 5 6 5 5 5 5 6 6 4 4 2 3 3 4 4 6 6 6 7 1 9 12 11 10 10 10 10 11 11 11 10 11 11 10 12 16 20 24 26 26 28 28 27 28 29 30 29 27 26 24 22 20 16 12 10 7 6 4 4 4 3 4 5 7 8 10 12 12 14 16 17 18 19 20 22 23 25 28 29 31 32 32 31 32 34 35 35 36 38 39 39 39 38 34 29 30
4 3 2 2 2 3 4 5 3 1 4 4 1 2 5 4 4 7 10 7 4 11 10 9 8 9 10 9 9 9 9 9 9 10 11 13 16 19 22 24 25 25 26 28 30 31 32 30 28 27 26 24 22 18 15 13 12 10 8 8 8 7 7 7 8 8 7 7 8 9 11 13 15 16 18 20 22 23 25 27 29 31 32 31 31 33 34 35 35 37 38 39 39 39 36 31 32
3 2 1 2 2 3 4 2 2 3 4 5 4 4 5 5 5 10 13 6 8 11 8 8 7 9 11 10 9 9 9 9 8 9 10 12 16 19 20 22 24 25 27 30 32 32 32 31 30 28 27 26 23 20 18 16 15 14 13 12 11 10 11 10 10 10 8 6 5 6 8 10 12 13 14 17 19 21 23 25 27 29 32 31 30 31 34 34 35 35 36 39 39 38 37 35 34
2 1 1 2 1 2 2 2 4 4 4 5 5 6 3 5 5 8 9 4 9 8 7 7 7 10 11 10 10 9 9 9 9 10 10 11 15 19 19 21 23 26 28 29 30 31 31 32 32 31 30 28 25 23 20 18 17 15 15 15 14 13 13 12 11 10 10 9 7 7 8 9 10 12 12 14 16 18 20 22 24 27 30 32 31 30 32 34 34 34 35 37 39 39 38 37 35
2 1 1 1 1 3 3 4 3 3 3 5 5 6 3 4 6 5 1 5 7 6 6 7 7 9 10 9 9 8 8 8 9 10 10 12 16 18 19 21 24 26 27 28 29 30 30 31 32 32 31 29 27 25 22 20 18 17 17 16 16 15 14 14 13 12 11 12 11 8 8 8 10 11 12 13 14 16 18 20 22 24 27 30 31 31 30 32 34 34 34 36 38 39 39 38 37
1 0 2 2 4 4 3 3 2 1 3 6 8 10 7 3 6 2 2 5 9 8 6 7 8 9 8 8 8 8 7 7 8 8 9 13 16 18 21 22 24 25 27 29 29 29 29 29 29 30 30 29 28 27 25 24 21 19 18 17 16 16 16 15 15 14 14 13 13 12 10 8 8 10 11 12 13 14 16 18 20 21 24 27 29 31 31 31 32 34 34 34 37 39 39 39 38
1 2 3 4 4 1 1 1 1 1 4 5 5 7 10 4 3 1 3 6 8 9 8 9 9 9 8 7 7 7 7 6 7 7 8 10 14 18 21 22 24 26 28 29 28 28 28 28 28 29 29 28 28 27 27 26 25 23 21 19 18 16 16 16 16 16 15 15 15 14 13 11 10 9 10 12 13 14 14 16 18 20 21 24 27 29 31 32 32 33 33 33 34 36 39 38 38
3 2 1 2 3 1 0 1 2 3 5 3 4 3 5 5 4 5 2 8 8 7 8 10 10 9 8 7 7 6 6 6 6 6 7 8 10 14 18 20 22 25 26 26 27 27 27 27 27 27 27 26 26 26 27 27 27 25 23 21 19 18 16 16 16 16 16 16 16 15 15 14 13 12 11 11 13 14 15 15 17 18 20 22 24 27 29 31 31 32 33 33 33 33 36 38 39
5 4 4 3 1 2 3 3 3 4 3 1 4 5 1 4 4 3 5 10 9 10 11 10 10 10 9 7 6 6 5 6 6 6 6 7 9 13 16 18 20 22 24 25 26 26 25 26 26 26 25 25 25 25 25 25 26 25 25 23 21 20 18 17 16 16 15 15 16 16 16 16 15 14 13 13 14 14 15 15 16 17 19 20 22 24 26 28 30 31 32 33 33 33 33 36 39
6 4 4 5 3 3 4 4 3 3 2 2 1 1 1 3 1 4 9 10 9 10 10 10 10 9 8 7 6 5 5 5 5 6 6 7 11 14 15 17 19 21 23 24 25 25 25 25 25 25 24 24 24 24 24 24 24 23 24 24 24 22 21 20 18 17 16 16 16 16 17 17 16 16 15 15 15 15 15 15 15 16 18 19 21 23 25 26 27 29 31 32 33 34 33 34 37
3 1 2 3 3 3 3 4 3 2 3 3 2 2 3 1 5 7 9 10 10 9 8 9 8 7 6 6 5 5 5 5 5 5 6 7 11 14 14 16 17 18 20 21 22 23 23 23 23 23 23 23 23 23 23 23 23 23 23 24 24 23 23 23 22 20 19 17 16 16 16 17 17 17 16 15 15 15 15 15 15 16 18 20 21 22 24 25 26 28 30 31 33 34 34 34 35
1 2 2 3 2 2 2 5 3 2 3 5 4 4 5 1 4 6 8 10 10 7 7 8 7 6 6 5 5 4 4 4 4 4 4 6 9 12 13 14 14 14 15 16 18 18 19 19 19 20 21 22 23 23 23 23 23 24 24 24 24 24 24 23 22 22 21 21 20 19 19 18 18 18 17 17 16 15 15 15 16 17 18 20 22 23 24 25 26 27 29 30 31 33 34 35 35
3 2 2 2 1 1 1 2 2 3 5 5 5 7 6 4 2 3 7 8 8 6 6 6 5 5 5 4 4 4 4 4 3 4 4 6 8 10 11 11 11 11 11 10 11 13 14 14 15 17 18 20 20 21 21 21 23 24 24 24 24 24 24 22 22 22 22 23 24 24 24 23 22 21 19 18 17 16 15 16 17 19 20 21 22 23 24 25 26 27 28 29 30 31 33 35 35
3 2 1 1 0 1 0 1 2 4 6 4 5 8 7 4 3 4 6 7 8 6 6 5 4 4 4 4 3 3 2 2 2 3 3 5 7 8 8 9 9 9 8 7 6 8 9 10 12 14 16 17 18 18 18 18 19 21 22 23 24 24 24 24 24 24 24 24 24 24 25 25 24 24 23 21 20 18 17 17 18 19 21 21 22 23 24 25 26 27 28 29 29 30 32 34 35
2 2 1 1 3 3 2 1 2 4 5 4 5 6 4 3 1 4 7 7 8 7 5 5 4 5 4 4 3 3 2 2 2 2 2 4 4 4 4 5 6 7 7 6 5 6 8 9 10 11 13 14 14 14 14 14 14 16 18 19 21 22 23 24 25 26 27 27 26 26 26 26 25 25 24 23 22 21 20 20 19 20 21 21 22 23 24 24 25 26 27 28 29 29 31 33 34
1 1 2 2 1 2 1 2 3 4 5 5 5 6 3 2 3 4 8 7 7 7 6 5 4 5 4 3 4 4 4 3 3 2 1 2 2 1 2 2 3 4 5 5 5 5 6 7 8 9 9 10 10 10 10 11 11 12 14 15 17 18 19 21 22 23 25 26 27 28 28 28 28 27 26 25 24 23 22 21 20 20 20 21 22 23 24 24 25 26 26 28 28 29 31 32 32
3 3 2 2 0 1 3 5 4 3 4 4 5 7 3 1 1 4 7 5 6 7 6 5 5 5 5 4 4 4 4 4 4 4 3 2 2 2 3 3 3 2 2 3 3 3 4 4 5 6 6 7 8 9 11 12 12 13 13 14 15 16 17 19 19 20 22 22 24 25 27 28 29 29 28 27 27 26 24 22 21 20 20 21 22 22 23 24 25 26 27 27 28 28 30 31 31
Wind_Direction
345 339 329 322 310 309 300 268 277 258 204 248 262 50 75 66 152 293 25 74 75 62 41 336 329 331 290 312 311 307 294 269 295 332 248 178 156 162 181 170 156 167 171 182 183 180 183 183 181 174 174 175 175 176 178 181 181 184 182 175 178 179 175 177 176 176 175 170 173 171 171 171 164 161 155 149 145 140 141 141 140 139 135 125 121 119 116 119 120 118 94 55 44 43 81 96 84
345 325 310 299 289 294 306 286 295 275 234 249 330 49 91 165 90 23 37 50 48 58 14 332 329 319 286 288 284 296 275 231 199 71 125 141 145 169 188 171 160 166 168 183 184 180 183 183 183 177 176 177 177 178 180 183 183 184 184 180 179 180 179 181 183 181 178 174 177 178 179 180 171 166 160 150 143 141 139 137 136 137 131 122 119 117 116 119 120 111 78 23 358 342 304 110 57
336 319 308 294 262 238 285 303 256 296 304 321 44 36 17 1 42 44 43 64 64 57 328 260 244 289 255 244 258 280 264 262 83 70 120 151 152 176 191 172 162 165 168 185 185 182 185 185 186 181 178 180 180 180 183 186 185 186 187 185 182 183 182 183 187 184 181 179 181 186 188 185 175 168 160 151 143 142 139 135 134 131 128 126 123 121 119 115 120 144 92 52 276 286 284 278 287
339 350 317 299 259 213 255 240 235 295 299 324 57 82 82 44 34 42 44 85 112 133 264 265 177 181 224 247 310 317 266 45 67 53 122 167 167 172 183 171 162 165 170 184 186 184 188 188 188 185 180 181 182 182 185 189 189 189 191 189 186 188 186 185 187 187 186 186 188 192 194 187 179 171 161 152 143 134 131 131 132 129 129 131 127 119 114 109 110 239 177 193 234 261 276 280 284
342 343 295 296 313 232 287 280 270 263 273 326 30 48 66 60 40 43 8 42 135 144 276 317 339 194 213 277 314 307 299 75 77 59 110 147 151 168 178 170 162 168 174 179 187 186 190 190 190 188 183 183 184 185 188 190 192 193 195 193 189 191 191 189 189 190 191 192 195 195 194 185 177 171 163 156 147 146 148 143 140 141 136 133 132 122 117 112 104 226 235 223 247 262 272 282 291
322 313 258 261 287 140 334 278 276 258 267 16 7 359 21 35 36 37 314 297 126 131 201 250 292 275 254 240 187 225 353 79 161 89 122 145 157 181 178 171 163 171 178 174 187 189 191 193 192 191 185 184 185 187 191 192 194 195 199 197 194 194 195 194 192 195 195 196 198 195 191 181 175 169 165 158 152 166 178 173 164 161 156 150 146 153 201 232 209 213 229 234 257 274 286 292 296
309 308 230 230 272 82 275 264 274 274 358 44 16 350 351 6 30 10 307 322 92 124 142 270 20 320 276 198 191 234 195 161 188 128 146 146 156 183 172 171 166 173 181 174 185 191 194 195 193 193 188 186 186 187 192 194 196 197 202 201 199 198 198 197 194 197 196 197 198 195 187 179 175 165 168 169 170 184 194 194 190 183 183 182 170 186 229 232 235 222 218 209 257 290 299 300 301
295 294 112 285 283 187 229 261 263 259 161 83 66 343 338 357 28 355 310 306 270 148 157 210 103 285 255 157 233 210 150 161 165 154 168 150 154 180 165 170 170 176 183 176 184 193 197 198 196 195 191 188 188 190 193 196 198 199 204 203 202 201 201 200 195 197 196 198 198 193 186 179 175 170 178 187 195 217 223 214 220 224 220 216 202 199 208 214 221 211 219 235 268 291 296 297 301
253 221 14 324 286 245 239 246 243 254 328 79 59 334 30 7 15 6 303 297 276 170 165 163 134 236 285 241 242 129 131 160 160 166 185 183 177 187 166 170 176 180 182 176 188 198 198 200 199 197 194 192 191 193 196 197 199 200 203 205 204 201 202 200 195 196 195 196 193 188 185 180 178 182 195 204 217 234 242 238 245 252 252 247 240 230 216 215 203 199 230 256 276 286 289 290 295
234 192 322 312 288 274 261 251 266 340 339 93 134 66 50 29 10 343 297 303 309 26 86 100 141 228 298 310 268 117 159 166 154 167 187 198 197 194 175 172 179 184 181 178 192 201 197 198 200 199 198 197 194 196 198 199 201 201 203 205 204 202 201 198 194 195 193 193 191 186 187 186 187 195 208 219 228 234 245 254 252 247 244 233 228 225 214 207 193 209 246 265 277 282 285 285 286
267 189 176 324 292 269 284 341 357 332 327 329 166 99 69 57 19 305 270 281 277 192 149 110 175 241 265 279 264 132 151 157 147 163 177 190 199 191 179 174 177 187 184 180 193 204 198 197 200 202 202 201 198 197 199 201 203 203 204 205 203 201 201 199 197 197 194 192 191 188 190 194 198 208 218 226 232 237 247 257 255 233 214 209 202 199 201 195 194 227 256 267 277 281 280 265 194
290 247 142 270 283 280 321 354 323 318 324 308 51 88 77 90 54 285 309 320 307 295 220 150 158 259 265 271 264 135 134 136 137 158 169 174 192 176 176 183 176 185 188 183 192 205 205 201 201 205 206 204 202 200 201 203 205 205 206 206 203 201 201 201 199 199 196 194 193 189 193 198 202 214 226 234 238 243 249 254 252 227 203 200 193 190 197 193 203 234 256 268 271 262 235 186 146
258 301 352 275 288 299 317 326 296 308 307 314 87 99 121 123 244 302 356 336 308 304 305 112 56 40 288 285 281 135 124 114 140 160 158 153 185 175 171 192 184 183 191 189 193 201 207 207 204 207 208 207 205 203 204 206 208 208 208 206 203 202 202 201 200 200 198 197 196 193 197 203 207 214 227 236 240 244 250 252 242 217 197 196 195 193 197 196 209 235 256 263 250 217 189 153 136
288 316 352 291 306 298 287 267 284 313 299 4 91 141 138 165 258 4 3 302 298 306 183 328 17 38 277 273 309 124 125 141 162 167 151 150 179 179 168 192 197 185 192 194 195 200 205 209 209 210 211 208 206 207 208 210 211 210 209 207 204 203 203 202 201 203 202 201 202 200 203 208 214 219 227 235 240 244 249 250 230 203 196 197 197 196 201 199 212 239 252 245 227 201 178 146 134
323 322 343 277 291 286 267 243 276 326 302 35 105 150 102 253 225 174 227 270 287 63 259 247 153 103 298 290 297 174 183 186 181 170 165 167 174 179 173 188 204 191 195 198 197 201 203 209 213 212 211 207 205 207 210 212 214 212 210 209 208 206 205 205 206 208 208 208 209 210 212 215 221 225 230 235 241 244 247 248 222 198 199 199 199 197 204 200 210 240 243 229 217 196 177 151 142
10 325 323 263 278 283 271 249 235 216 303 49 133 135 77 289 269 172 195 242 291 317 302 242 182 215 274 285 257 164 177 183 178 174 175 175 171 178 183 192 203 195 198 201 201 204 203 205 209 211 208 206 204 206 209 211 213 213 211 212 213 211 210 211 212 213 214 216 217 219 221 223 227 228 231 234 240 244 247 246 222 203 201 198 197 195 201 195 203 236 236 223 212 195 180 161 155
23 325 264 261 265 265 273 278 270 266 325 360 171 154 326 307 73 129 44 188 270 283 271 253 233 227 236 252 235 184 183 181 177 177 173 175 175 180 192 199 203 201 203 205 205 205 204 202 203 208 207 206 205 206 209 211 212 213 214 215 217 217 217 217 217 218 219 222 224 225 227 227 229 228 229 233 238 242 244 242 224 208 200 196 196 193 197 189 200 232 232 220 209 190 179 167 163
220 223 224 250 248 257 323 331 323 346 331 334 326 325 327 323 341 92 36 243 246 267 267 262 254 241 237 241 227 199 193 190 189 186 181 181 183 185 196 203 204 206 209 210 208 205 206 204 203 204 206 207 207 209 210 212 214 214 216 218 220 221 223 223 222 222 223 225 227 227 228 228 229 229 230 232 235 238 240 237 224 211 200 198 198 191 192 186 199 228 229 220 203 187 185 174 166
205 241 241 247 253 276 317 314 314 337 321 318 316 323 335 331 330 347 270 270 274 282 280 284 276 261 252 241 205 187 191 195 198 199 196 192 192 194 198 201 204 207 210 214 213 209 207 205 203 202 204 207 206 209 211 213 217 218 220 222 222 224 226 227 226 226 227 228 228 228 228 228 229 231 231 233 234 234 236 234 225 212 200 201 202 195 192 184 192 219 226 216 196 197 196 179 168
206 221 244 251 263 286 304 309 314 319 315 313 307 332 336 310 308 291 272 279 271 269 274 284 283 275 282 279 194 183 191 199 204 205 208 207 206 206 205 201 203 208 213 218 218 213 209 207 205 203 204 205 205 207 209 211 216 220 221 224 225 225 226 226 226 227 227 227 227 227 226 226 226 227 229 231 232 231 233 229 218 209 203 204 206 203 200 191 188 212 222 212 200 210 204 182 170
205 198 234 261 287 301 303 307 311 319 328 326 312 321 311 294 292 280 282 284 260 253 262 269 280 289 301 313 312 207 195 201 207 208 214 220 218 217 217 213 213 217 218 218 218 215 212 209 207 206 205 205 206 206 206 208 212 218 219 221 223 223 223 223 224 226 226 226 227 227 225 224 224 222 222 225 226 227 228 222 210 207 205 207 210 208 207 205 203 215 221 212 209 215 210 191 175
240 240 248 263 281 286 284 293 310 357 345 318 302 297 298 303 294 277 273 268 257 254 265 269 276 290 294 297 310 300 245 213 207 208 216 224 227 227 227 226 225 224 215 210 214 218 215 211 208 208 206 205 206 206 207 209 209 216 217 215 218 220 222 223 223 223 224 224 224 226 224 221 221 218 217 222 223 223 223 218 209 207 207 209 212 212 213 216 218 222 222 215 215 214 210 202 187
223 249 258 269 278 281 283 294 314 62 326 294 286 288 298 300 288 280 265 260 264 263 267 272 272 274 280 285 291 290 278 249 216 209 214 222 229 232 233 230 227 224 213 207 212 217 216 213 211 209 206 206 207 206 207 208 209 212 214 213 215 218 221 222 222 221 221 222 221 222 222 217 214 213 214 219 220 218 217 216 211 207 209 211 213 214 217 220 223 225 219 214 216 212 207 204 194
235 250 267 277 278 280 280 289 295 274 280 279 278 287 285 282 287 288 274 266 272 272 270 273 277 276 275 279 277 270 268 263 242 224 222 227 234 238 238 232 227 226 216 210 211 213 215 216 214 211 207 206 207 206 206 207 209 211 211 212 215 215 215 216 218 219 217 217 217 217 218 212 208 209 211 216 215 212 213 215 211 207 209 213 214 214 218 221 222 223 217 208 211 211 210 208 201
254 259 269 274 270 279 290 297 292 282 276 270 263 270 270 271 285 285 279 274 270 267 268 268 270 273 267 263 262 260 257 257 253 241 235 236 240 241 239 234 228 225 220 216 213 211 216 218 214 211 209 207 207 207 206 207 209 210 210 210 212 211 211 214 216 216 212 212 214 213 213 208 205 207 208 212 212 207 209 212 211 206 208 214 215 212 215 221 219 218 214 207 210 213 212 211 208
254 277 298 306 299 299 302 297 288 280 272 266 257 257 264 271 285 281 271 264 263 258 257 260 263 264 260 257 256 255 254 249 247 246 242 239 237 232 230 230 224 222 224 222 217 214 216 218 214 211 211 210 208 207 207 207 208 209 210 209 211 211 211 214 214 213 209 210 212 210 210 207 205 206 205 210 210 204 203 208 209 206 207 213 216 209 210 219 218 214 211 208 212 214 212 211 210
309 330 322 308 298 290 282 275 273 268 262 260 255 256 264 266 271 276 266 256 268 273 270 268 266 265 264 267 266 261 258 254 248 244 242 238 226 221 224 224 221 225 226 222 221 220 217 216 215 213 212 211 209 208 208 207 208 209 211 210 210 211 211 212 211 211 209 209 211 209 209 207 206 206 204 208 209 203 201 204 206 205 205 211 215 209 208 217 217 212 211 211 213 212 210 210 211
345 356 324 292 283 278 270 265 263 259 252 243 238 254 273 272 241 253 263 266 270 274 274 274 269 267 264 262 263 258 254 258 255 243 230 230 224 221 222 223 225 228 227 225 224 223 218 215 215 214 212 212 210 209 209 209 209 210 211 210 209 209 210 210 210 210 209 209 210 209 208 207 207 206 204 207 208 203 200 203 203 202 204 208 211 209 210 215 215 212 213 213 211 209 210 209 210
333 349 302 281 278 271 265 259 253 252 238 180 142 259 260 254 241 245 255 261 267 265 265 271 271 269 264 261 263 259 253 257 259 247 231 234 235 230 228 230 232 233 235 236 232 224 220 216 215 214 212 212 212 211 211 210 210 211 211 211 209 209 210 210 210 210 210 209 210 209 209 208 207 206 205 207 208 204 202 202 202 202 204 207 210 209 210 212 210 209 210 209 206 205 208 206 207
279 260 257 274 286 274 267 259 240 241 211 116 102 253 237 252 260 260 260 264 289 287 284 285 277 274 272 270 272 271 269 266 265 262 253 243 241 239 237 238 236 238 243 244 237 229 224 219 216 215 213 214 214 212 212 211 211 211 212 212 211 211 212 212 212 212 211 210 210 211 211 210 209 207 206 207 207 206 204 203 204 204 206 209 210 210 210 209 207 207 207 204 201 203 208 206 204
266 265 250 251 277 268 272 270 167 155 231 117 111 238 245 261 271 279 299 329 318 299 293 287 278 276 276 275 275 273 272 268 265 269 266 258 254 250 244 241 238 243 254 255 244 234 227 223 219 216 215 215 215 213 212 213 212 211 213 214 213 213 213 213 212 212 212 212 212 213 213 212 211 209 207 208 207 207 206 206 207 207 208 210 211 212 211 208 208 209 208 203 199 202 209 207 203
252 267 267 230 239 257 278 282 152 159 274 149 127 222 244 244 270 299 319 319 307 297 289 281 275 275 279 286 289 282 279 277 281 291 301 313 356 18 4 305 291 285 302 302 269 235 226 224 220 217 215 215 216 215 213 214 214 213 214 215 215 215 215 214 213 213 214 214 215 216 215 214 213 210 209 210 209 209 209 209 210 210 210 211 212 212 211 210 209 210 210 207 203 201 206 207 203
232 235 254 251 250 263 283 302 166 165 130 185 189 228 251 241 261 277 281 278 275 273 272 271 272 276 283 291 293 292 296 306 322 357 19 28 32 33 33 32 27 24 15 355 331 259 223 223 221 217 218 217 217 217 214 214 215 213 215 217 216 216 217 216 214 215 216 216 218 219 218 216 215 213 212 214 213 213 212 212 212 212 212 212 213 213 212 211 210 209 209 209 209 204 205 204 198
245 235 247 262 272 290 304 332 292 177 136 224 231 237 253 248 252 263 270 273 268 262 265 271 278 287 288 288 299 304 313 359 21 31 34 33 34 32 32 33 31 31 31 21 9 6 194 220 224 216 221 220 217 219 216 214 215 214 214 217 217 217 218 217 216 218 219 220 220 221 222 220 219 217 215 216 216 216 215 214 214 213 213 213 213 213 212 211 210 211 209 207 210 207 205 202 197
267 269 275 285 284 298 298 294 309 306 280 275 271 268 276 282 291 294 285 281 274 269 273 278 280 283 286 295 316 332 12 45 46 43 40 37 35 33 32 35 39 38 34 34 35 40 62 63 198 202 215 218 212 216 215 211 211 212 212 213 216 217 218 218 217 220 222 223 223 224 226 226 223 221 219 218 218 218 216 215 215 214 214 213 213 213 210 208 208 210 211 208 207 208 210 205 199
261 267 273 281 281 288 286 280 286 291 284 283 284 286 299 310 309 294 278 271 269 274 283 283 273 269 283 313 356 29 47 56 57 51 45 39 36 33 32 35 41 44 42 43 46 46 48 50 58 105 196 209 202 203 202 200 202 207 210 212 216 217 220 221 219 221 224 226 227 228 230 231 228 225 222 220 219 219 218 217 216 216 216 214 213 213 210 209 209 209 211 209 202 201 207 205 200
265 273 275 281 290 282 280 284 283 289 290 282 289 296 305 310 301 284 274 272 276 280 276 268 267 273 305 24 45 56 61 63 62 55 47 39 36 34 33 33 37 39 39 41 45 44 43 46 52 64 82 164 182 186 188 190 194 202 209 215 220 220 222 225 223 223 225 229 231 230 233 234 232 228 225 223 222 221 221 219 218 218 218 216 216 217 215 213 213 212 210 209 202 195 196 200 200
279 286 292 296 290 276 278 282 281 294 306 288 300 299 299 298 286 277 277 281 278 268 262 267 295 10 35 47 51 60 66 58 55 53 45 39 35 33 34 34 34 34 34 36 39 39 41 43 45 54 67 81 126 158 176 187 196 206 214 221 227 230 232 234 235 233 232 233 234 234 235 235 234 231 229 228 226 225 223 222 221 221 220 218 218 220 218 215 213 212 208 205 203 199 196 197 197
283 292 301 290 275 281 280 273 290 355 20 302 305 297 297 288 276 273 277 277 265 262 278 347 44 55 51 46 49 60 59 48 45 44 41 38 34 34 35 35 35 35 35 35 37 38 39 40 41 47 53 51 52 72 98 139 189 204 211 220 223 227 236 241 241 240 238 237 237 238 239 238 237 236 234 232 231 229 227 225 224 224 223 220 219 218 217 215 213 211 208 205 201 199 199 199 200
260 257 269 269 273 286 272 279 344 356 315 290 295 290 282 274 270 270 265 251 255 325 51 60 63 65 61 56 53 55 56 53 49 43 38 37 35 35 35 35 36 38 37 36 36 36 36 38 41 43 44 43 43 43 41 45 59 178 200 214 205 203 221 235 234 236 240 239 238 238 240 242 242 241 239 237 235 234 232 229 227 227 226 224 221 219 216 214 213 211 210 208 201 195 197 199 203
260 242 241 257 269 273 278 326 349 333 305 296 311 304 257 259 285 299 265 243 249 66 72 68 65 66 66 66 63 58 55 54 54 50 41 37 37 36 36 36 38 39 39 37 37 37 38 40 43 43 41 40 42 38 29 33 30 17 282 261 257 244 252 258 258 256 250 247 244 242 243 245 245 245 244 241 239 238 236 234 231 230 230 227 224 222 220 218 216 214 211 209 205 201 200 198 201
271 252 242 258 284 295 310 343 352 337 301 285 20 349 252 263 322 319 279 264 328 75 79 76 74 73 69 68 67 64 59 55 54 52 47 43 40 38 37 36 38 40 40 40 41 42 43 44 45 45 42 39 39 36 30 33 30 17 3 345 341 323 296 283 282 280 264 255 255 252 251 251 251 250 248 246 244 242 240 237 234 233 233 232 228 226 225 222 219 217 214 211 210 210 205 198 200
258 242 239 283 344 332 322 345 355 308 266 260 17 333 260 266 285 271 263 254 98 84 81 81 84 83 78 73 66 64 62 57 54 48 46 46 41 38 36 34 36 39 40 42 44 44 44 46 46 45 43 41 39 37 33 32 30 24 14 1 356 353 345 334 329 325 304 277 269 261 256 257 258 257 254 252 250 248 245 241 239 236 234 235 233 229 227 226 224 222 219 216 214 213 209 202 203
237 225 354 9 7 323 315 328 254 242 278 276 231 212 256 271 244 248 254 233 103 91 86 83 86 84 79 71 64 64 64 60 55 48 43 44 44 41 37 34 35 38 41 43 43 43 44 45 46 46 44 42 40 39 37 33 29 26 19 11 5 2 357 349 343 340 333 319 296 275 269 267 266 266 263 260 257 253 250 247 244 241 238 238 237 234 230 229 229 227 224 221 218 216 213 211 209
227 168 49 33 36 303 291 265 254 267 302 282 208 180 236 278 256 249 243 163 99 98 96 87 81 80 78 73 65 57 59 64 61 53 44 41 46 46 42 39 38 39 41 42 43 42 43 43 45 47 45 43 41 41 41 38 33 28 21 15 10 6 1 355 351 346 341 334 317 289 278 278 275 275 273 271 266 260 257 254 251 248 244 242 240 239 236 232 231 231 228 224 221 220 218 217 217
196 143 41 39 220 241 242 236 255 288 278 262 223 181 192 281 272 258 204 114 115 116 101 91 78 71 70 72 70 57 49 56 57 58 47 40 45 47 46 43 41 41 42 43 44 42 42 41 43 45 44 42 43 44 44 42 38 33 27 20 15 10 5 1 358 355 350 343 336 319 297 285 280 279 279 278 276 271 265 261 257 254 251 249 245 243 241 238 235 234 234 230 226 224 222 221 222
177 43 356 315 256 228 210 211 212 295 264 257 237 195 178 277 285 264 81 115 137 132 121 113 90 73 66 60 64 62 51 45 48 54 47 40 41 42 44 42 39 38 40 42 43 41 41 40 41 42 42 42 43 45 46 44 41 38 33 27 20 15 10 8 5 2 357 350 345 339 328 313 296 285 280 280 282 281 275 268 265 262 258 254 250 247 245 244 241 238 238 237 232 228 226 225 226
74 59 22 334 299 231 141 161 121 226 248 268 268 188 179 213 277 278 56 83 122 137 139 125 100 83 76 62 57 57 52 46 45 46 42 39 36 34 35 36 34 34 35 36 37 38 39 39 39 40 39 39 40 43 45 44 43 41 37 33 27 20 16 14 10 6 2 357 350 345 341 338 328 309 289 281 282 285 282 277 272 268 264 260 256 253 250 248 247 244 242 241 238 233 229 229 229
109 117 85 351 319 322 237 215 167 226 236 265 8 79 180 219 258 274 10 57 69 94 106 106 101 92 81 70 60 54 50 48 45 43 39 33 32 31 30 30 31 32 32 32 33 35 36 36 37 38 36 36 37 39 42 43 42 40 39 37 33 29 25 21 15 9 2 358 352 345 343 341 338 333 318 304 297 291 284 281 280 275 273 270 265 260 257 253 251 248 246 245 244 241 235 232 232
158 166 150 152 242 268 253 245 228 242 240 270 36 50 289 249 265 297 68 72 64 70 77 84 91 89 84 79 68 58 52 48 47 45 42 34 31 31 32 31 30 30 31 32 33 33 34 34 34 34 34 34 37 37 38 39 39 37 37 38 37 35 33 28 20 11 4 359 354 348 345 341 337 334 329 323 321 311 294 285 285 284 281 279 274 268 264 260 255 252 250 248 247 247 243 238 236
187 188 157 167 201 225 244 257 250 251 268 306 10 78 241 238 192 93 92 89 77 77 80 83 86 87 90 88 79 67 55 43 41 43 42 37 32 32 35 34 32 31 31 32 33 32 32 31 30 30 29 30 34 35 36 37 37 35 35 35 36 37 36 34 29 23 16 8 360 353 349 345 340 335 328 323 322 321 310 295 288 288 287 285 281 275 269 265 261 256 253 251 250 249 248 245 241
222 148 129 206 211 206 256 267 247 254 297 291 248 220 253 218 115 104 98 92 85 85 89 88 88 91 93 88 79 71 59 46 39 42 41 34 32 34 35 34 32 32 33 34 33 31 30 29 28 29 28 28 30 31 32 33 35 36 36 34 34 34 33 32 31 29 27 21 14 6 357 349 344 338 333 328 323 321 318 306 292 291 293 290 285 280 275 270 266 262 257 254 252 251 250 250 247
34 83 189 233 202 138 272 277 267 267 276 268 248 257 275 232 118 102 93 89 88 87 88 89 91 94 91 83 78 74 72 65 49 48 47 36 35 34 32 30 27 25 28 33 34 34 34 33 32 31 30 30 30 29 28 28 30 33 34 34 34 33 31 30 28 27 27 27 26 22 14 5 357 346 337 332 327 323 321 314 301 295 295 294 290 285 280 275 271 266 262 259 256 254 252 251 251
115 169 235 289 359 66 168 257 274 266 261 257 247 262 273 258 220 120 100 95 95 95 94 92 91 89 85 79 82 79 79 80 73 69 55 42 38 32 27 24 20 17 17 21 26 32 38 40 41 38 35 34 32 32 30 27 28 29 29 30 30 30 30 29 28 26 26 28 26 25 22 17 12 3 353 343 335 329 325 320 312 305 301 298 295 290 284 279 275 271 267 263 261 259 256 253 252
138 181 211 85 92 289 226 198 218 239 256 253 239 255 262 253 235 142 126 118 117 120 115 113 112 107 104 104 107 100 87 87 84 76 62 56 46 29 20 17 18 19 13 10 12 22 32 38 42 42 40 40 40 39 37 34 32 30 28 29 27 26 25 25 24 23 23 25 22 21 20 19 18 14 8 0 352 344 336 328 320 314 309 304 300 295 290 284 279 275 271 268 265 262 258 257 255
49 45 347 146 178 212 204 209 221 229 254 263 253 257 258 277 328 113 128 131 132 134 130 132 136 131 134 144 149 147 147 146 100 76 67 72 60 30 18 14 16 17 10 12 17 23 33 33 35 38 36 37 39 37 37 37 36 33 33 33 31 28 24 22 21 19 19 19 16 15 14 14 15 15 12 9 6 1 352 342 332 322 315 310 306 300 295 291 285 279 275 272 270 266 262 260 258
79 58 293 270 242 258 254 253 235 229 253 261 260 258 244 303 353 97 119 127 138 145 145 152 157 145 150 172 172 166 169 174 158 140 112 77 61 5 348 331 344 4 10 25 31 30 30 26 31 35 29 27 26 22 22 24 27 29 29 30 28 27 26 23 21 20 18 15 13 11 9 7 8 8 9 9 9 8 4 355 344 333 323 315 310 305 300 296 290 284 280 276 273 269 265 263 261
126 134 236 251 42 319 280 258 229 212 235 242 258 262 243 260 334 98 114 124 133 142 147 154 165 159 158 171 168 164 169 174 171 165 164 166 190 239 263 267 272 302 336 14 33 31 23 18 25 27 23 22 18 14 13 13 15 15 14 15 16 17 18 17 18 18 16 14 11 9 6 3 1 1 1 2 3 5 4 1 354 346 336 325 317 311 306 302 295 289 284 280 276 272 268 266 263